iso_date,Year,Hour,Min,DOY,POS_DOY,Lat,Lon,BP,Ts,Ta,has_bp,has_ts,has_ta,BuoyID,Buoy_Type,Buoy_Owner,Logistics,Hemisphere
2020-09-05T18:01:00Z,2020,18,1,249.7507,249.7507,63.028,-53.221,-999.0,6.98,-999.0,no,yes,no,300234068343670,SVPGHI,AOML,MARIA_S._MERI,North
2020-09-05T19:00:02Z,2020,19,0,249.7917,249.7917,63.034,-53.261,-999.0,7.16,-999.0,no,yes,no,300234068343670,SVPGHI,AOML,MARIA_S._MERI,North
2020-09-05T19:59:57Z,2020,20,0,249.8333,249.8333,63.042,-53.306,-999.0,7.24,-999.0,no,yes,no,300234068343670,SVPGHI,AOML,MARIA_S._MERI,North
2020-09-05T21:00:00Z,2020,21,0,249.875,249.875,63.051,-53.352,-999.0,7.27,-999.0,no,yes,no,300234068343670,SVPGHI,AOML,MARIA_S._MERI,North
2020-09-05T22:01:03Z,2020,22,1,249.9174,249.9174,63.062,-53.4,-999.0,7.29,-999.0,no,yes,no,300234068343670,SVPGHI,AOML,MARIA_S._MERI,North
2020-09-05T22:59:57Z,2020,23,0,249.9583,249.9583,63.07,-53.443,-999.0,7.3,-999.0,no,yes,no,300234068343670,SVPGHI,AOML,MARIA_S._MERI,North
2020-09-06T00:00:00Z,2020,0,0,250.0,250.0,63.075,-53.487,-999.0,7.3,-999.0,no,yes,no,300234068343670,SVPGHI,AOML,MARIA_S._MERI,North
2020-09-06T01:01:03Z,2020,1,1,250.0424,250.0424,63.079,-53.53,-999.0,7.32,-999.0,no,yes,no,300234068343670,SVPGHI,AOML,MARIA_S._MERI,North
2020-09-06T02:00:57Z,2020,2,1,250.084,250.084,63.083,-53.575,-999.0,7.31,-999.0,no,yes,no,300234068343670,SVPGHI,AOML,MARIA_S._MERI,North
2020-09-06T03:00:00Z,2020,3,0,250.125,250.125,63.086,-53.61,-999.0,7.31,-999.0,no,yes,no,300234068343670,SVPGHI,AOML,MARIA_S._MERI,North
2020-09-06T04:00:02Z,2020,4,0,250.1667,250.1667,63.087,-53.648,-999.0,7.31,-999.0,no,yes,no,300234068343670,SVPGHI,AOML,MARIA_S._MERI,North
2020-09-06T04:59:57Z,2020,5,0,250.2083,250.2083,63.085,-53.684,-999.0,7.31,-999.0,no,yes,no,300234068343670,SVPGHI,AOML,MARIA_S._MERI,North
2020-09-06T06:00:00Z,2020,6,0,250.25,250.25,63.086,-53.722,-999.0,7.29,-999.0,no,yes,no,300234068343670,SVPGHI,AOML,MARIA_S._MERI,North
2020-09-06T07:00:02Z,2020,7,0,250.2917,250.2917,63.086,-53.757,-999.0,7.15,-999.0,no,yes,no,300234068343670,SVPGHI,AOML,MARIA_S._MERI,North
2020-09-06T07:59:57Z,2020,8,0,250.3333,250.3333,63.086,-53.795,-999.0,7.12,-999.0,no,yes,no,300234068343670,SVPGHI,AOML,MARIA_S._MERI,North
2020-09-06T09:00:00Z,2020,9,0,250.375,250.375,63.088,-53.827,-999.0,7.02,-999.0,no,yes,no,300234068343670,SVPGHI,AOML,MARIA_S._MERI,North
2020-09-06T10:00:02Z,2020,10,0,250.4167,250.4167,63.086,-53.862,-999.0,6.93,-999.0,no,yes,no,300234068343670,SVPGHI,AOML,MARIA_S._MERI,North
2020-09-06T10:59:57Z,2020,11,0,250.4583,250.4583,63.085,-53.893,-999.0,6.87,-999.0,no,yes,no,300234068343670,SVPGHI,AOML,MARIA_S._MERI,North
2020-09-06T12:00:00Z,2020,12,0,250.5,250.5,63.083,-53.926,-999.0,6.92,-999.0,no,yes,no,300234068343670,SVPGHI,AOML,MARIA_S._MERI,North
2020-09-06T13:00:02Z,2020,13,0,250.5417,250.5417,63.078,-53.957,-999.0,6.93,-999.0,no,yes,no,300234068343670,SVPGHI,AOML,MARIA_S._MERI,North
2020-09-06T13:59:57Z,2020,14,0,250.5833,250.5833,63.073,-53.987,-999.0,6.93,-999.0,no,yes,no,300234068343670,SVPGHI,AOML,MARIA_S._MERI,North
2020-09-06T15:01:00Z,2020,15,1,250.6257,250.6257,63.069,-54.017,-999.0,6.89,-999.0,no,yes,no,300234068343670,SVPGHI,AOML,MARIA_S._MERI,North
2020-09-06T16:00:02Z,2020,16,0,250.6667,250.6667,63.059,-54.046,-999.0,6.96,-999.0,no,yes,no,300234068343670,SVPGHI,AOML,MARIA_S._MERI,North
2020-09-06T16:59:57Z,2020,17,0,250.7083,250.7083,63.057,-54.072,-999.0,7.2,-999.0,no,yes,no,300234068343670,SVPGHI,AOML,MARIA_S._MERI,North
2020-09-06T18:00:00Z,2020,18,0,250.75,250.75,63.048,-54.099,-999.0,7.3,-999.0,no,yes,no,300234068343670,SVPGHI,AOML,MARIA_S._MERI,North
2020-09-06T19:00:02Z,2020,19,0,250.7917,250.7917,63.041,-54.132,-999.0,7.38,-999.0,no,yes,no,300234068343670,SVPGHI,AOML,MARIA_S._MERI,North
2020-09-06T19:59:57Z,2020,20,0,250.8333,250.8333,63.033,-54.162,-999.0,7.42,-999.0,no,yes,no,300234068343670,SVPGHI,AOML,MARIA_S._MERI,North
2020-09-06T21:03:01Z,2020,21,3,250.8771,250.8771,63.037,-54.206,-999.0,7.42,-999.0,no,yes,no,300234068343670,SVPGHI,AOML,MARIA_S._MERI,North
2020-09-06T22:01:03Z,2020,22,1,250.9174,250.9174,63.039,-54.244,-999.0,7.42,-999.0,no,yes,no,300234068343670,SVPGHI,AOML,MARIA_S._MERI,North
2020-09-06T23:00:57Z,2020,23,1,250.959,250.959,63.04,-54.28,-999.0,7.41,-999.0,no,yes,no,300234068343670,SVPGHI,AOML,MARIA_S._MERI,North
2020-09-07T00:00:00Z,2020,0,0,251.0,251.0,63.041,-54.308,-999.0,7.4,-999.0,no,yes,no,300234068343670,SVPGHI,AOML,MARIA_S._MERI,North
2020-09-07T01:00:02Z,2020,1,0,251.0417,251.0417,63.044,-54.337,-999.0,7.39,-999.0,no,yes,no,300234068343670,SVPGHI,AOML,MARIA_S._MERI,North
2020-09-07T02:00:57Z,2020,2,1,251.084,251.084,63.048,-54.365,-999.0,7.39,-999.0,no,yes,no,300234068343670,SVPGHI,AOML,MARIA_S._MERI,North
2020-09-07T03:00:00Z,2020,3,0,251.125,251.125,63.046,-54.385,-999.0,7.38,-999.0,no,yes,no,300234068343670,SVPGHI,AOML,MARIA_S._MERI,North
2020-09-07T04:03:56Z,2020,4,4,251.1694,251.1694,63.041,-54.401,-999.0,7.38,-999.0,no,yes,no,300234068343670,SVPGHI,AOML,MARIA_S._MERI,North
2020-09-07T04:59:57Z,2020,5,0,251.2083,251.2083,63.039,-54.42,-999.0,7.37,-999.0,no,yes,no,300234068343670,SVPGHI,AOML,MARIA_S._MERI,North
2020-09-07T06:00:00Z,2020,6,0,251.25,251.25,63.033,-54.441,-999.0,7.36,-999.0,no,yes,no,300234068343670,SVPGHI,AOML,MARIA_S._MERI,North
2020-09-07T07:00:02Z,2020,7,0,251.2917,251.2917,63.03,-54.468,-999.0,7.36,-999.0,no,yes,no,300234068343670,SVPGHI,AOML,MARIA_S._MERI,North
2020-09-07T07:59:57Z,2020,8,0,251.3333,251.3333,63.033,-54.499,-999.0,7.35,-999.0,no,yes,no,300234068343670,SVPGHI,AOML,MARIA_S._MERI,North
2020-09-07T09:04:01Z,2020,9,4,251.3778,251.3778,63.041,-54.528,-999.0,7.34,-999.0,no,yes,no,300234068343670,SVPGHI,AOML,MARIA_S._MERI,North
2020-09-07T10:03:56Z,2020,10,4,251.4194,251.4194,-90.0,-180.0,-999.0,7.34,-999.0,no,yes,no,300234068343670,SVPGHI,AOML,MARIA_S._MERI,North
2020-09-07T11:00:57Z,2020,11,1,251.459,251.459,63.057,-54.561,-999.0,7.18,-999.0,no,yes,no,300234068343670,SVPGHI,AOML,MARIA_S._MERI,North
2020-09-07T12:00:00Z,2020,12,0,251.5,251.5,63.063,-54.579,-999.0,7.15,-999.0,no,yes,no,300234068343670,SVPGHI,AOML,MARIA_S._MERI,North
2020-09-07T13:00:02Z,2020,13,0,251.5417,251.5417,63.068,-54.599,-999.0,7.2,-999.0,no,yes,no,300234068343670,SVPGHI,AOML,MARIA_S._MERI,North
2020-09-07T14:00:57Z,2020,14,1,251.584,251.584,63.071,-54.622,-999.0,6.98,-999.0,no,yes,no,300234068343670,SVPGHI,AOML,MARIA_S._MERI,North
2020-09-07T15:01:00Z,2020,15,1,251.6257,251.6257,63.075,-54.654,-999.0,6.63,-999.0,no,yes,no,300234068343670,SVPGHI,AOML,MARIA_S._MERI,North
2020-09-07T16:00:02Z,2020,16,0,251.6667,251.6667,63.081,-54.678,-999.0,6.54,-999.0,no,yes,no,300234068343670,SVPGHI,AOML,MARIA_S._MERI,North
2020-09-07T16:59:57Z,2020,17,0,251.7083,251.7083,63.089,-54.701,-999.0,6.64,-999.0,no,yes,no,300234068343670,SVPGHI,AOML,MARIA_S._MERI,North
2020-09-07T18:00:00Z,2020,18,0,251.75,251.75,63.096,-54.723,-999.0,6.62,-999.0,no,yes,no,300234068343670,SVPGHI,AOML,MARIA_S._MERI,North
2020-09-07T19:00:02Z,2020,19,0,251.7917,251.7917,63.105,-54.746,-999.0,6.89,-999.0,no,yes,no,300234068343670,SVPGHI,AOML,MARIA_S._MERI,North
2020-09-07T19:59:57Z,2020,20,0,251.8333,251.8333,63.115,-54.767,-999.0,7.05,-999.0,no,yes,no,300234068343670,SVPGHI,AOML,MARIA_S._MERI,North
2020-09-07T21:00:00Z,2020,21,0,251.875,251.875,63.126,-54.782,-999.0,7.26,-999.0,no,yes,no,300234068343670,SVPGHI,AOML,MARIA_S._MERI,North
2020-09-07T22:01:03Z,2020,22,1,251.9174,251.9174,63.137,-54.796,-999.0,7.31,-999.0,no,yes,no,300234068343670,SVPGHI,AOML,MARIA_S._MERI,North
2020-09-07T22:59:57Z,2020,23,0,251.9583,251.9583,63.147,-54.811,-999.0,7.32,-999.0,no,yes,no,300234068343670,SVPGHI,AOML,MARIA_S._MERI,North
2020-09-08T00:00:00Z,2020,0,0,252.0,252.0,63.153,-54.828,-999.0,7.33,-999.0,no,yes,no,300234068343670,SVPGHI,AOML,MARIA_S._MERI,North
2020-09-08T01:01:03Z,2020,1,1,252.0424,252.0424,63.159,-54.848,-999.0,7.31,-999.0,no,yes,no,300234068343670,SVPGHI,AOML,MARIA_S._MERI,North
2020-09-08T01:59:57Z,2020,2,0,252.0833,252.0833,63.165,-54.876,-999.0,7.28,-999.0,no,yes,no,300234068343670,SVPGHI,AOML,MARIA_S._MERI,North
2020-09-08T03:00:00Z,2020,3,0,252.125,252.125,63.175,-54.908,-999.0,7.27,-999.0,no,yes,no,300234068343670,SVPGHI,AOML,MARIA_S._MERI,North
2020-09-08T04:00:02Z,2020,4,0,252.1667,252.1667,63.187,-54.941,-999.0,6.96,-999.0,no,yes,no,300234068343670,SVPGHI,AOML,MARIA_S._MERI,North
2020-09-08T05:00:57Z,2020,5,1,252.209,252.209,63.202,-54.967,-999.0,6.69,-999.0,no,yes,no,300234068343670,SVPGHI,AOML,MARIA_S._MERI,North
2020-09-08T06:00:00Z,2020,6,0,252.25,252.25,63.218,-54.984,-999.0,6.6,-999.0,no,yes,no,300234068343670,SVPGHI,AOML,MARIA_S._MERI,North
2020-09-08T07:00:02Z,2020,7,0,252.2917,252.2917,63.234,-54.998,-999.0,6.66,-999.0,no,yes,no,300234068343670,SVPGHI,AOML,MARIA_S._MERI,North
2020-09-08T07:59:57Z,2020,8,0,252.3333,252.3333,63.25,-55.012,-999.0,7.1,-999.0,no,yes,no,300234068343670,SVPGHI,AOML,MARIA_S._MERI,North
2020-09-08T09:00:00Z,2020,9,0,252.375,252.375,63.26,-55.02,-999.0,7.11,-999.0,no,yes,no,300234068343670,SVPGHI,AOML,MARIA_S._MERI,North
2020-09-08T10:00:02Z,2020,10,0,252.4167,252.4167,63.268,-55.037,-999.0,7.0,-999.0,no,yes,no,300234068343670,SVPGHI,AOML,MARIA_S._MERI,North
2020-09-08T10:59:57Z,2020,11,0,252.4583,252.4583,63.277,-55.07,-999.0,6.99,-999.0,no,yes,no,300234068343670,SVPGHI,AOML,MARIA_S._MERI,North
2020-09-08T12:01:00Z,2020,12,1,252.5007,252.5007,63.284,-55.096,-999.0,7.01,-999.0,no,yes,no,300234068343670,SVPGHI,AOML,MARIA_S._MERI,North
2020-09-08T13:00:02Z,2020,13,0,252.5417,252.5417,63.295,-55.131,-999.0,7.04,-999.0,no,yes,no,300234068343670,SVPGHI,AOML,MARIA_S._MERI,North
2020-09-08T13:59:57Z,2020,14,0,252.5833,252.5833,63.309,-55.163,-999.0,7.08,-999.0,no,yes,no,300234068343670,SVPGHI,AOML,MARIA_S._MERI,North
2020-09-08T15:00:00Z,2020,15,0,252.625,252.625,63.323,-55.192,-999.0,7.08,-999.0,no,yes,no,300234068343670,SVPGHI,AOML,MARIA_S._MERI,North
2020-09-08T16:00:02Z,2020,16,0,252.6667,252.6667,63.341,-55.213,-999.0,7.03,-999.0,no,yes,no,300234068343670,SVPGHI,AOML,MARIA_S._MERI,North
2020-09-08T16:59:57Z,2020,17,0,252.7083,252.7083,63.352,-55.239,-999.0,7.01,-999.0,no,yes,no,300234068343670,SVPGHI,AOML,MARIA_S._MERI,North
2020-09-08T18:00:00Z,2020,18,0,252.75,252.75,63.363,-55.263,-999.0,7.01,-999.0,no,yes,no,300234068343670,SVPGHI,AOML,MARIA_S._MERI,North
2020-09-08T19:02:55Z,2020,19,3,252.7937,252.7937,63.376,-55.282,-999.0,7.02,-999.0,no,yes,no,300234068343670,SVPGHI,AOML,MARIA_S._MERI,North
2020-09-08T19:59:57Z,2020,20,0,252.8333,252.8333,63.388,-55.297,-999.0,7.03,-999.0,no,yes,no,300234068343670,SVPGHI,AOML,MARIA_S._MERI,North
2020-09-08T21:00:00Z,2020,21,0,252.875,252.875,63.399,-55.311,-999.0,7.06,-999.0,no,yes,no,300234068343670,SVPGHI,AOML,MARIA_S._MERI,North
2020-09-08T22:03:56Z,2020,22,4,252.9194,252.9194,-90.0,-180.0,-999.0,7.09,-999.0,no,yes,no,300234068343670,SVPGHI,AOML,MARIA_S._MERI,North
2020-09-08T23:01:58Z,2020,23,2,252.9597,252.9597,63.416,-55.348,-999.0,7.12,-999.0,no,yes,no,300234068343670,SVPGHI,AOML,MARIA_S._MERI,North
2020-09-09T00:00:00Z,2020,0,0,253.0,253.0,63.425,-55.375,-999.0,7.11,-999.0,no,yes,no,300234068343670,SVPGHI,AOML,MARIA_S._MERI,North
2020-09-09T01:01:03Z,2020,1,1,253.0424,253.0424,63.434,-55.408,-999.0,7.11,-999.0,no,yes,no,300234068343670,SVPGHI,AOML,MARIA_S._MERI,North
2020-09-09T02:03:59Z,2020,2,4,253.0861,253.0861,63.445,-55.439,-999.0,7.11,-999.0,no,yes,no,300234068343670,SVPGHI,AOML,MARIA_S._MERI,North
2020-09-09T03:01:00Z,2020,3,1,253.1257,253.1257,63.455,-55.464,-999.0,7.12,-999.0,no,yes,no,300234068343670,SVPGHI,AOML,MARIA_S._MERI,North
2020-09-09T04:00:02Z,2020,4,0,253.1667,253.1667,63.468,-55.484,-999.0,7.12,-999.0,no,yes,no,300234068343670,SVPGHI,AOML,MARIA_S._MERI,North
2020-09-09T04:59:57Z,2020,5,0,253.2083,253.2083,63.48,-55.498,-999.0,7.13,-999.0,no,yes,no,300234068343670,SVPGHI,AOML,MARIA_S._MERI,North
2020-09-09T06:00:00Z,2020,6,0,253.25,253.25,63.492,-55.509,-999.0,7.12,-999.0,no,yes,no,300234068343670,SVPGHI,AOML,MARIA_S._MERI,North
2020-09-09T07:00:02Z,2020,7,0,253.2917,253.2917,63.503,-55.516,-999.0,7.12,-999.0,no,yes,no,300234068343670,SVPGHI,AOML,MARIA_S._MERI,North
2020-09-09T08:02:58Z,2020,8,3,253.3354,253.3354,63.512,-55.521,-999.0,7.11,-999.0,no,yes,no,300234068343670,SVPGHI,AOML,MARIA_S._MERI,North
2020-09-09T09:00:00Z,2020,9,0,253.375,253.375,63.518,-55.522,-999.0,7.11,-999.0,no,yes,no,300234068343670,SVPGHI,AOML,MARIA_S._MERI,North
2020-09-09T10:01:03Z,2020,10,1,253.4174,253.4174,63.52,-55.531,-999.0,7.11,-999.0,no,yes,no,300234068343670,SVPGHI,AOML,MARIA_S._MERI,North
2020-09-09T11:01:58Z,2020,11,2,253.4597,253.4597,63.523,-55.546,-999.0,7.1,-999.0,no,yes,no,300234068343670,SVPGHI,AOML,MARIA_S._MERI,North
2020-09-09T12:00:00Z,2020,12,0,253.5,253.5,63.526,-55.564,-999.0,7.12,-999.0,no,yes,no,300234068343670,SVPGHI,AOML,MARIA_S._MERI,North
2020-09-09T13:00:02Z,2020,13,0,253.5417,253.5417,63.529,-55.585,-999.0,7.14,-999.0,no,yes,no,300234068343670,SVPGHI,AOML,MARIA_S._MERI,North
2020-09-09T13:59:57Z,2020,14,0,253.5833,253.5833,63.533,-55.606,-999.0,7.15,-999.0,no,yes,no,300234068343670,SVPGHI,AOML,MARIA_S._MERI,North
2020-09-09T15:00:00Z,2020,15,0,253.625,253.625,63.538,-55.626,-999.0,7.17,-999.0,no,yes,no,300234068343670,SVPGHI,AOML,MARIA_S._MERI,North
2020-09-09T16:00:02Z,2020,16,0,253.6667,253.6667,63.543,-55.641,-999.0,7.18,-999.0,no,yes,no,300234068343670,SVPGHI,AOML,MARIA_S._MERI,North
2020-09-09T16:59:57Z,2020,17,0,253.7083,253.7083,63.55,-55.655,-999.0,7.19,-999.0,no,yes,no,300234068343670,SVPGHI,AOML,MARIA_S._MERI,North
2020-09-09T18:00:00Z,2020,18,0,253.75,253.75,63.555,-55.665,-999.0,7.2,-999.0,no,yes,no,300234068343670,SVPGHI,AOML,MARIA_S._MERI,North
2020-09-09T19:59:57Z,2020,20,0,253.8333,253.8333,63.563,-55.67,-999.0,7.2,-999.0,no,yes,no,300234068343670,SVPGHI,AOML,MARIA_S._MERI,North
2020-09-09T21:00:00Z,2020,21,0,253.875,253.875,63.565,-55.671,-999.0,7.18,-999.0,no,yes,no,300234068343670,SVPGHI,AOML,MARIA_S._MERI,North
2020-09-09T22:00:02Z,2020,22,0,253.9167,253.9167,63.567,-55.675,-999.0,7.18,-999.0,no,yes,no,300234068343670,SVPGHI,AOML,MARIA_S._MERI,North
2020-09-09T22:59:57Z,2020,23,0,253.9583,253.9583,63.569,-55.683,-999.0,7.17,-999.0,no,yes,no,300234068343670,SVPGHI,AOML,MARIA_S._MERI,North
2020-09-10T01:00:02Z,2020,1,0,254.0417,254.0417,63.571,-55.694,-999.0,7.16,-999.0,no,yes,no,300234068343670,SVPGHI,AOML,MARIA_S._MERI,North
2020-09-10T01:59:57Z,2020,2,0,254.0833,254.0833,63.574,-55.702,-999.0,7.15,-999.0,no,yes,no,300234068343670,SVPGHI,AOML,MARIA_S._MERI,North
2020-09-10T03:00:00Z,2020,3,0,254.125,254.125,63.574,-55.707,-999.0,7.15,-999.0,no,yes,no,300234068343670,SVPGHI,AOML,MARIA_S._MERI,North
2020-09-10T04:00:02Z,2020,4,0,254.1667,254.1667,63.573,-55.712,-999.0,7.13,-999.0,no,yes,no,300234068343670,SVPGHI,AOML,MARIA_S._MERI,North
2020-09-10T04:59:57Z,2020,5,0,254.2083,254.2083,63.574,-55.717,-999.0,7.13,-999.0,no,yes,no,300234068343670,SVPGHI,AOML,MARIA_S._MERI,North
2020-09-10T06:01:00Z,2020,6,1,254.2507,254.2507,63.574,-55.715,-999.0,7.13,-999.0,no,yes,no,300234068343670,SVPGHI,AOML,MARIA_S._MERI,North
2020-09-10T07:01:03Z,2020,7,1,254.2924,254.2924,63.577,-55.718,-999.0,7.12,-999.0,no,yes,no,300234068343670,SVPGHI,AOML,MARIA_S._MERI,North
2020-09-10T08:00:57Z,2020,8,1,254.334,254.334,63.576,-55.72,-999.0,7.12,-999.0,no,yes,no,300234068343670,SVPGHI,AOML,MARIA_S._MERI,North
2020-09-10T09:00:00Z,2020,9,0,254.375,254.375,63.574,-55.723,-999.0,7.1,-999.0,no,yes,no,300234068343670,SVPGHI,AOML,MARIA_S._MERI,North
2020-09-10T10:00:02Z,2020,10,0,254.4167,254.4167,63.578,-55.73,-999.0,7.1,-999.0,no,yes,no,300234068343670,SVPGHI,AOML,MARIA_S._MERI,North
2020-09-10T10:59:57Z,2020,11,0,254.4583,254.4583,63.579,-55.737,-999.0,7.08,-999.0,no,yes,no,300234068343670,SVPGHI,AOML,MARIA_S._MERI,North
2020-09-10T12:00:00Z,2020,12,0,254.5,254.5,63.58,-55.742,-999.0,7.09,-999.0,no,yes,no,300234068343670,SVPGHI,AOML,MARIA_S._MERI,North
2020-09-10T13:01:03Z,2020,13,1,254.5424,254.5424,63.583,-55.749,-999.0,7.09,-999.0,no,yes,no,300234068343670,SVPGHI,AOML,MARIA_S._MERI,North
2020-09-10T14:00:57Z,2020,14,1,254.584,254.584,63.589,-55.751,-999.0,7.09,-999.0,no,yes,no,300234068343670,SVPGHI,AOML,MARIA_S._MERI,North
2020-09-10T15:01:00Z,2020,15,1,254.6257,254.6257,63.59,-55.751,-999.0,7.11,-999.0,no,yes,no,300234068343670,SVPGHI,AOML,MARIA_S._MERI,North
2020-09-10T16:03:56Z,2020,16,4,254.6694,254.6694,63.589,-55.745,-999.0,7.12,-999.0,no,yes,no,300234068343670,SVPGHI,AOML,MARIA_S._MERI,North
2020-09-10T16:59:57Z,2020,17,0,254.7083,254.7083,63.589,-55.744,-999.0,7.12,-999.0,no,yes,no,300234068343670,SVPGHI,AOML,MARIA_S._MERI,North
2020-09-10T18:00:00Z,2020,18,0,254.75,254.75,63.588,-55.747,-999.0,7.13,-999.0,no,yes,no,300234068343670,SVPGHI,AOML,MARIA_S._MERI,North
2020-09-10T19:01:03Z,2020,19,1,254.7924,254.7924,63.578,-55.745,-999.0,7.13,-999.0,no,yes,no,300234068343670,SVPGHI,AOML,MARIA_S._MERI,North
2020-09-10T20:03:59Z,2020,20,4,254.8361,254.8361,63.583,-55.745,-999.0,7.12,-999.0,no,yes,no,300234068343670,SVPGHI,AOML,MARIA_S._MERI,North
2020-09-10T21:00:00Z,2020,21,0,254.875,254.875,63.582,-55.751,-999.0,7.12,-999.0,no,yes,no,300234068343670,SVPGHI,AOML,MARIA_S._MERI,North
2020-09-10T22:00:02Z,2020,22,0,254.9167,254.9167,63.583,-55.755,-999.0,7.11,-999.0,no,yes,no,300234068343670,SVPGHI,AOML,MARIA_S._MERI,North
2020-09-10T22:59:57Z,2020,23,0,254.9583,254.9583,63.583,-55.759,-999.0,7.11,-999.0,no,yes,no,300234068343670,SVPGHI,AOML,MARIA_S._MERI,North
2020-09-11T00:01:00Z,2020,0,1,255.0007,255.0007,63.584,-55.757,-999.0,7.1,-999.0,no,yes,no,300234068343670,SVPGHI,AOML,MARIA_S._MERI,North
2020-09-11T01:01:03Z,2020,1,1,255.0424,255.0424,63.587,-55.756,-999.0,7.1,-999.0,no,yes,no,300234068343670,SVPGHI,AOML,MARIA_S._MERI,North
2020-09-11T02:00:57Z,2020,2,1,255.084,255.084,63.591,-55.753,-999.0,7.1,-999.0,no,yes,no,300234068343670,SVPGHI,AOML,MARIA_S._MERI,North
2020-09-11T03:00:00Z,2020,3,0,255.125,255.125,63.591,-55.747,-999.0,7.09,-999.0,no,yes,no,300234068343670,SVPGHI,AOML,MARIA_S._MERI,North
2020-09-11T04:00:02Z,2020,4,0,255.1667,255.1667,63.589,-55.739,-999.0,7.09,-999.0,no,yes,no,300234068343670,SVPGHI,AOML,MARIA_S._MERI,North
2020-09-11T04:59:57Z,2020,5,0,255.2083,255.2083,63.587,-55.728,-999.0,7.09,-999.0,no,yes,no,300234068343670,SVPGHI,AOML,MARIA_S._MERI,North
2020-09-11T06:00:00Z,2020,6,0,255.25,255.25,63.587,-55.72,-999.0,7.07,-999.0,no,yes,no,300234068343670,SVPGHI,AOML,MARIA_S._MERI,North
2020-09-11T07:00:02Z,2020,7,0,255.2917,255.2917,63.583,-55.717,-999.0,7.07,-999.0,no,yes,no,300234068343670,SVPGHI,AOML,MARIA_S._MERI,North
2020-09-11T07:59:57Z,2020,8,0,255.3333,255.3333,63.579,-55.714,-999.0,7.07,-999.0,no,yes,no,300234068343670,SVPGHI,AOML,MARIA_S._MERI,North
2020-09-11T09:00:00Z,2020,9,0,255.375,255.375,63.578,-55.718,-999.0,7.06,-999.0,no,yes,no,300234068343670,SVPGHI,AOML,MARIA_S._MERI,North
2020-09-11T10:00:02Z,2020,10,0,255.4167,255.4167,63.579,-55.722,-999.0,7.05,-999.0,no,yes,no,300234068343670,SVPGHI,AOML,MARIA_S._MERI,North
2020-09-11T10:59:57Z,2020,11,0,255.4583,255.4583,63.583,-55.726,-999.0,7.02,-999.0,no,yes,no,300234068343670,SVPGHI,AOML,MARIA_S._MERI,North
2020-09-11T12:01:00Z,2020,12,1,255.5007,255.5007,63.586,-55.728,-999.0,7.05,-999.0,no,yes,no,300234068343670,SVPGHI,AOML,MARIA_S._MERI,North
2020-09-11T13:00:02Z,2020,13,0,255.5417,255.5417,63.593,-55.722,-999.0,6.98,-999.0,no,yes,no,300234068343670,SVPGHI,AOML,MARIA_S._MERI,North
2020-09-11T13:59:57Z,2020,14,0,255.5833,255.5833,63.6,-55.714,-999.0,7.0,-999.0,no,yes,no,300234068343670,SVPGHI,AOML,MARIA_S._MERI,North
2020-09-11T15:01:00Z,2020,15,1,255.6257,255.6257,63.602,-55.708,-999.0,7.04,-999.0,no,yes,no,300234068343670,SVPGHI,AOML,MARIA_S._MERI,North
2020-09-11T16:00:02Z,2020,16,0,255.6667,255.6667,63.603,-55.696,-999.0,7.08,-999.0,no,yes,no,300234068343670,SVPGHI,AOML,MARIA_S._MERI,North
2020-09-11T16:59:57Z,2020,17,0,255.7083,255.7083,63.604,-55.688,-999.0,7.11,-999.0,no,yes,no,300234068343670,SVPGHI,AOML,MARIA_S._MERI,North
2020-09-11T18:01:00Z,2020,18,1,255.7507,255.7507,63.602,-55.682,-999.0,7.12,-999.0,no,yes,no,300234068343670,SVPGHI,AOML,MARIA_S._MERI,North
2020-09-11T19:01:03Z,2020,19,1,255.7924,255.7924,63.603,-55.67,-999.0,7.11,-999.0,no,yes,no,300234068343670,SVPGHI,AOML,MARIA_S._MERI,North
2020-09-11T19:59:57Z,2020,20,0,255.8333,255.8333,63.599,-55.666,-999.0,7.11,-999.0,no,yes,no,300234068343670,SVPGHI,AOML,MARIA_S._MERI,North
2020-09-11T21:00:00Z,2020,21,0,255.875,255.875,63.593,-55.661,-999.0,7.08,-999.0,no,yes,no,300234068343670,SVPGHI,AOML,MARIA_S._MERI,North
2020-09-11T22:00:02Z,2020,22,0,255.9167,255.9167,63.588,-55.664,-999.0,7.06,-999.0,no,yes,no,300234068343670,SVPGHI,AOML,MARIA_S._MERI,North
2020-09-11T22:59:57Z,2020,23,0,255.9583,255.9583,63.58,-55.68,-999.0,6.96,-999.0,no,yes,no,300234068343670,SVPGHI,AOML,MARIA_S._MERI,North
2020-09-12T00:00:00Z,2020,0,0,256.0,256.0,63.577,-55.693,-999.0,7.03,-999.0,no,yes,no,300234068343670,SVPGHI,AOML,MARIA_S._MERI,North
2020-09-12T01:00:02Z,2020,1,0,256.0417,256.0417,63.577,-55.697,-999.0,7.03,-999.0,no,yes,no,300234068343670,SVPGHI,AOML,MARIA_S._MERI,North
2020-09-12T01:59:57Z,2020,2,0,256.0833,256.0833,63.582,-55.686,-999.0,6.88,-999.0,no,yes,no,300234068343670,SVPGHI,AOML,MARIA_S._MERI,North
2020-09-12T03:00:00Z,2020,3,0,256.125,256.125,63.585,-55.674,-999.0,6.89,-999.0,no,yes,no,300234068343670,SVPGHI,AOML,MARIA_S._MERI,North
2020-09-12T04:00:02Z,2020,4,0,256.1667,256.1667,63.591,-55.661,-999.0,6.65,-999.0,no,yes,no,300234068343670,SVPGHI,AOML,MARIA_S._MERI,North
2020-09-12T04:59:57Z,2020,5,0,256.2083,256.2083,63.595,-55.641,-999.0,6.44,-999.0,no,yes,no,300234068343670,SVPGHI,AOML,MARIA_S._MERI,North
2020-09-12T06:00:00Z,2020,6,0,256.25,256.25,63.596,-55.62,-999.0,6.04,-999.0,no,yes,no,300234068343670,SVPGHI,AOML,MARIA_S._MERI,North
2020-09-12T07:00:02Z,2020,7,0,256.2917,256.2917,63.595,-55.604,-999.0,5.9,-999.0,no,yes,no,300234068343670,SVPGHI,AOML,MARIA_S._MERI,North
2020-09-12T07:59:57Z,2020,8,0,256.3333,256.3333,63.591,-55.596,-999.0,5.91,-999.0,no,yes,no,300234068343670,SVPGHI,AOML,MARIA_S._MERI,North
2020-09-12T09:00:00Z,2020,9,0,256.375,256.375,63.585,-55.594,-999.0,5.91,-999.0,no,yes,no,300234068343670,SVPGHI,AOML,MARIA_S._MERI,North
2020-09-12T10:00:02Z,2020,10,0,256.4167,256.4167,63.582,-55.601,-999.0,5.84,-999.0,no,yes,no,300234068343670,SVPGHI,AOML,MARIA_S._MERI,North
2020-09-12T10:59:57Z,2020,11,0,256.4583,256.4583,63.584,-55.611,-999.0,5.9,-999.0,no,yes,no,300234068343670,SVPGHI,AOML,MARIA_S._MERI,North
2020-09-12T12:00:00Z,2020,12,0,256.5,256.5,63.589,-55.62,-999.0,5.92,-999.0,no,yes,no,300234068343670,SVPGHI,AOML,MARIA_S._MERI,North
2020-09-12T13:01:03Z,2020,13,1,256.5424,256.5424,63.599,-55.632,-999.0,5.96,-999.0,no,yes,no,300234068343670,SVPGHI,AOML,MARIA_S._MERI,North
2020-09-12T14:00:57Z,2020,14,1,256.584,256.584,63.611,-55.634,-999.0,5.98,-999.0,no,yes,no,300234068343670,SVPGHI,AOML,MARIA_S._MERI,North
2020-09-12T15:00:00Z,2020,15,0,256.625,256.625,63.622,-55.63,-999.0,5.98,-999.0,no,yes,no,300234068343670,SVPGHI,AOML,MARIA_S._MERI,North
2020-09-12T16:00:02Z,2020,16,0,256.6667,256.6667,63.632,-55.617,-999.0,6.03,-999.0,no,yes,no,300234068343670,SVPGHI,AOML,MARIA_S._MERI,North
2020-09-12T16:59:57Z,2020,17,0,256.7083,256.7083,63.639,-55.604,-999.0,6.08,-999.0,no,yes,no,300234068343670,SVPGHI,AOML,MARIA_S._MERI,North
2020-09-12T18:00:00Z,2020,18,0,256.75,256.75,63.645,-55.591,-999.0,6.1,-999.0,no,yes,no,300234068343670,SVPGHI,AOML,MARIA_S._MERI,North
2020-09-12T19:00:02Z,2020,19,0,256.7917,256.7917,63.647,-55.578,-999.0,6.09,-999.0,no,yes,no,300234068343670,SVPGHI,AOML,MARIA_S._MERI,North
2020-09-12T20:00:57Z,2020,20,1,256.834,256.834,63.647,-55.573,-999.0,6.07,-999.0,no,yes,no,300234068343670,SVPGHI,AOML,MARIA_S._MERI,North
2020-09-12T21:00:00Z,2020,21,0,256.875,256.875,63.646,-55.572,-999.0,6.06,-999.0,no,yes,no,300234068343670,SVPGHI,AOML,MARIA_S._MERI,North
2020-09-12T22:00:02Z,2020,22,0,256.9167,256.9167,63.646,-55.574,-999.0,6.03,-999.0,no,yes,no,300234068343670,SVPGHI,AOML,MARIA_S._MERI,North